EW4496 Weather Reports


time (UTC)temp
F
wind
direction
speed
knots
gust
knots
rain 1hr
in
rain 24hr
in
rain mn
in
humidity
%
barometer
mb
20260508101541 53 229 0.0 0.0 0.00 0.00 0.00 93 1015.6
20260508100028 53 231 0.0 0.0 0.00 0.00 0.00 93 1015.6
20260508094544 53 225 0.0 0.0 0.00 0.00 0.00 93 1015.5
20260508093041 54 279 0.0 0.0 0.00 0.00 0.00 92 1015.5
20260508091602 54 231 0.0 0.0 0.00 0.00 0.00 92 1015.5
20260508090044 54 250 0.0 0.0 0.00 0.00 0.00 92 1015.4
20260508084555 55 288 0.0 0.0 0.00 0.00 0.00 92 1015.4
20260508083055 55 279 0.0 0.0 0.00 0.00 0.00 91 1015.4
20260508081612 55 199 0.0 0.0 0.00 0.00 0.00 91 1015.4
20260508074602 56 231 0.0 1.7 0.00 0.00 0.00 91 1015.3
20260508071555 56 303 0.0 0.9 0.00 0.00 0.00 89 1015.1
20260508070055 57 282 0.0 1.7 0.00 0.00 0.00 88 1015.1
20260508064555 58 211 0.0 1.7 0.00 0.00 0.00 87 1015.1
20260508063058 59 215 0.0 0.0 0.00 0.00 0.00 86 1015.0
20260508061557 60 247 0.0 0.9 0.00 0.00 0.00 86 1015.0
20260508060111 61 201 0.0 0.0 0.00 0.00 0.00 84 1014.9
20260508054639 61 235 0.0 0.0 0.00 0.00 0.00 84 1015.0
20260508053056 62 243 0.0 0.0 0.00 0.00 0.00 83 1015.1
20260508051554 62 349 0.0 0.9 0.00 0.00 0.00 82 1015.0
20260508050054 63 321 0.0 0.0 0.00 0.00 0.00 81 1014.9
20260508044554 64 321 0.0 0.0 0.00 0.00 0.00 79 1014.7
20260508043059 64 323 0.0 0.0 0.00 0.00 0.00 78 1014.5
20260508041555 65 352 0.0 0.0 0.00 0.00 0.00 77 1014.4
20260508040055 67 318 0.0 0.0 0.00 0.00 0.00 76 1014.2
20260508034555 69 302 0.0 0.0 0.00 0.00 0.00 74 1014.1
20260508033054 70 321 0.0 2.6 0.00 0.00 0.00 71 1013.9
20260508031601 72 304 0.0 3.5 0.00 0.00 0.00 67 1013.7
20260508030126 74 271 0.0 0.9 0.00 0.00 0.00 65 1013.5
20260508024510 78 307 0.0 2.6 0.00 0.00 0.00 61 1013.5
20260508023010 81 321 0.0 2.6 0.00 0.00 0.00 57 1013.4
20260508021511 83 290 0.0 0.0 0.00 0.00 0.00 54 1013.2
20260508020010 85 304 0.0 0.0 0.00 0.00 0.00 49 1013.2
20260508014511 85 283 0.0 0.0 0.00 0.00 0.00 48 1013.3
20260508013012 85 249 0.0 1.7 0.00 0.00 0.00 48 1013.4
20260508011525 85 325 0.0 0.9 0.00 0.00 0.00 47 1013.5
20260508010040 85 312 0.0 0.9 0.00 0.00 0.00 46 1013.5
20260508004530 85 352 0.0 0.9 0.00 0.00 0.00 46 1013.5
20260508003024 86 294 0.0 1.7 0.00 0.00 0.00 46 1013.6
20260508001525 85 311 0.0 0.9 0.00 0.00 0.00 47 1013.7
20260508000058 85 355 0.0 0.9 0.00 0.00 0.00 46 1013.7
20260507234509 84 324 0.0 2.6 0.00 0.00 0.00 48 1013.7
20260507233009 84 317 0.0 0.9 0.00 0.00 0.00 48 1013.7
20260507231511 83 340 0.0 0.0 0.00 0.00 0.00 48 1014.0
20260507230009 84 278 0.0 0.9 0.00 0.00 0.00 48 1014.2
20260507224513 83 32 0.0 1.7 0.00 0.00 0.00 50 1014.5
20260507223009 83 345 0.0 0.9 0.00 0.00 0.00 49 1014.7
20260507221512 82 306 0.0 0.0 0.00 0.00 0.00 50 1015.0
20260507220008 82 337 0.0 0.0 0.00 0.00 0.00 50 1015.2
20260507214510 81 333 0.0 1.7 0.00 0.00 0.00 51 1015.4
20260507213009 81 352 0.0 1.7 0.00 0.00 0.00 50 1015.7
20260507211542 80 360 0.0 1.7 0.00 0.00 0.00 52 1015.8
20260507210039 79 188 0.0 0.0 0.00 0.00 0.00 53 1016.0
20260507204539 79 17 0.0 0.9 0.00 0.00 0.00 54 1016.2
20260507203039 78 346 0.0 0.0 0.00 0.00 0.00 54 1016.4
20260507201542 78 298 0.0 0.9 0.00 0.00 0.00 56 1016.5
20260507200039 77 289 0.0 2.6 0.00 0.00 0.00 57 1016.6
20260507194538 76 278 0.0 0.0 0.00 0.00 0.00 57 1016.9
20260507193039 75 212 0.0 2.6 0.00 0.00 0.00 60 1017.0
20260507191538 74 321 0.0 1.7 0.00 0.00 0.00 62 1017.2
20260507190038 73 355 0.0 4.3 0.00 0.00 0.00 63 1017.3
20260507184538 73 323 0.0 2.6 0.00 0.00 0.00 64 1017.4
20260507183046 72 6 0.0 2.6 0.00 0.00 0.00 64 1017.5
20260507181542 72 315 0.0 0.9 0.00 0.00 0.00 64 1017.5
20260507180050 71 358 0.0 0.9 0.00 0.00 0.00 64 1017.6
20260507174606 71 293 0.0 0.0 0.00 0.00 0.00 68 1017.7
20260507173053 70 333 0.0 0.9 0.00 0.00 0.00 69 1017.7
20260507171604 68 341 0.0 0.0 0.00 0.00 0.00 71 1017.7
20260507170053 67 351 0.0 0.0 0.00 0.00 0.00 74 1017.8
20260507164552 66 308 0.0 0.0 0.00 0.00 0.00 74 1017.8
20260507163107 66 351 0.0 0.0 0.00 0.00 0.00 77 1017.8
20260507161607 63 348 0.0 0.0 0.00 0.00 0.00 81 1017.9
20260507160108 62 313 0.0 0.0 0.00 0.00 0.00 83 1018.1
20260507154607 60 336 0.0 0.0 0.00 0.00 0.00 86 1018.1
20260507153106 60 285 0.0 0.0 0.00 0.00 0.00 85 1018.2
20260507151522 61 327 0.0 0.0 0.00 0.00 0.00 84 1018.1
20260507150026 60 326 0.0 0.0 0.00 0.00 0.00 85 1018.1
20260507144529 59 337 0.0 0.0 0.00 0.00 0.00 86 1018.2
20260507143039 58 294 0.0 0.9 0.00 0.00 0.00 88 1018.0
20260507141544 57 314 0.0 0.0 0.00 0.00 0.00 88 1017.9
20260507140037 56 290 0.0 0.0 0.00 0.00 0.00 91 1017.8
20260507134536 55 332 0.0 0.0 0.00 0.00 0.00 92 1017.7
20260507133055 53 290 0.0 0.0 0.00 0.00 0.00 94 1017.6
20260507131551 53 288 0.0 0.0 0.00 0.00 0.00 94 1017.5
20260507130104 52 278 0.0 0.0 0.00 0.00 0.00 93 1017.5
20260507124618 53 280 0.0 0.0 0.00 0.00 0.00 93 1017.3
20260507123050 53 241 0.0 0.0 0.00 0.00 0.00 93 1017.3
20260507121553 53 262 0.0 0.0 0.00 0.00 0.00 93 1017.3
20260507120051 53 262 0.0 0.0 0.00 0.00 0.00 92 1017.3
20260507114609 54 262 0.0 0.0 0.00 0.00 0.00 92 1017.3
20260507113055 54 262 0.0 0.0 0.00 0.00 0.00 92 1017.3
20260507111551 54 262 0.0 0.0 0.00 0.00 0.00 92 1017.2
20260507110051 54 262 0.0 0.0 0.00 0.00 0.00 92 1017.2
20260507104558 54 262 0.0 0.0 0.00 0.00 0.00 91 1017.2
20260507103005 55 266 0.0 0.0 0.00 0.00 0.00 90 1017.2